User: anonymous   Login
Location: Unspecified
(0.0000°N, 0.0000°E)
Time: 18:59:50
(UTC+02:00)
Language:

Iridium 4 Rocket - Orbit

View from above orbital plane
View from above orbital plane
View from above satellite
View from above satellite

Ground track
Ground track

The orbit data is extracted from the following two-line orbital elements,

1 24797U 97020F   17083.94419046 +.00000108 +00000-0 +18462-4 0  9997
2 24797 086.8998 024.2161 0223511 237.9518 192.5108 14.43960297045756
Epoch (UTC): 24 March 2017 22:39:38
Eccentricity: 0.0223511
inclination: 86.8998°
perigee height: 586 km
apogee height: 904 km
right ascension of ascending node: 24.2161°
argument of perigee: 237.9518°
revolutions per day: 14.43960297
mean anomaly at epoch: 192.5108°
orbit number at epoch: 4575

The dashed part of the orbit path shows where the satellite is in the earth's shadow,  

DLR